KAL628 VHHH-RKSI

Flight info

Callsign KAL628
Flight time 2h 48m
Altitude 35000
Route DALOL V631 ENVAR M750 ANLOT B1 APU DCT DRAKE Q11 WP900 L4 LIPLO Y741 ATOTI Y722 OLMEN OLMEN2E
Aircraft B77L/H-SDE1E2E3FGHIJ2J3J4J5M1RWXY/LB1D1

Departure

Time 2026-05-04 13:06
Airport Hong Kong International Airport (VHHH)

Arrival

Time 2026-05-04 15:55
Airport Incheon International Airport (RKSI)
Time Latitude Longitude Altitude Speed Heading
2026-05-04 12:16 22.30059 113.92707 41 ft 0 kts 162°
2026-05-04 12:45 22.30061 113.92707 41 ft 1 kts 162°
2026-05-04 12:46 22.30075 113.92702 41 ft 2 kts 162°
2026-05-04 12:46 22.30090 113.92697 41 ft 2 kts 162°
2026-05-04 12:46 22.30106 113.92691 41 ft 2 kts 162°
2026-05-04 12:46 22.30121 113.92686 41 ft 2 kts 162°
2026-05-04 12:47 22.30137 113.92681 41 ft 2 kts 162°
2026-05-04 12:47 22.30146 113.92678 41 ft 0 kts 162°
2026-05-04 12:54 22.30145 113.92678 41 ft 1 kts 162°
2026-05-04 12:55 22.30125 113.92671 41 ft 5 kts 225°
2026-05-04 12:55 22.30115 113.92611 41 ft 12 kts 264°
2026-05-04 12:55 22.30093 113.92504 41 ft 18 kts 250°
2026-05-04 12:55 22.30045 113.92361 41 ft 23 kts 250°
2026-05-04 12:56 22.29989 113.92181 41 ft 25 kts 251°
2026-05-04 12:56 22.30008 113.92085 41 ft 14 kts 324°
2026-05-04 12:56 22.30111 113.92031 41 ft 18 kts 318°
2026-05-04 12:56 22.30127 113.91937 41 ft 13 kts 252°
2026-05-04 12:57 22.30091 113.91821 41 ft 19 kts 250°
2026-05-04 12:57 22.30046 113.91688 41 ft 18 kts 250°
2026-05-04 12:57 22.30006 113.91561 41 ft 17 kts 251°
2026-05-04 12:57 22.29968 113.91440 41 ft 17 kts 251°
2026-05-04 12:58 22.29932 113.91326 41 ft 16 kts 251°
2026-05-04 12:58 22.29898 113.91219 41 ft 15 kts 251°
2026-05-04 12:58 22.29866 113.91118 41 ft 14 kts 251°
2026-05-04 12:58 22.29836 113.91024 41 ft 13 kts 251°
2026-05-04 12:59 22.29807 113.90934 41 ft 12 kts 251°
2026-05-04 12:59 22.29780 113.90848 41 ft 12 kts 251°
2026-05-04 12:59 22.29747 113.90751 41 ft 15 kts 249°
2026-05-04 12:59 22.29706 113.90632 41 ft 19 kts 249°
2026-05-04 13:00 22.29657 113.90491 41 ft 21 kts 250°
2026-05-04 13:00 22.29607 113.90329 41 ft 24 kts 252°
2026-05-04 13:00 22.29549 113.90151 41 ft 26 kts 249°
2026-05-04 13:00 22.29495 113.89993 41 ft 18 kts 257°
2026-05-04 13:01 22.29513 113.89859 41 ft 19 kts 313°
2026-05-04 13:01 22.29612 113.89824 41 ft 0 kts 18°
2026-05-04 13:03 22.29613 113.89824 41 ft 1 kts 19°
2026-05-04 13:03 22.29625 113.89834 41 ft 3 kts 47°
2026-05-04 13:03 22.29640 113.89863 41 ft 6 kts 69°
2026-05-04 13:03 22.29643 113.89870 41 ft 0 kts 70°
2026-05-04 13:04 22.29643 113.89871 41 ft 0 kts 70°
2026-05-04 13:05 22.29647 113.89883 41 ft 3 kts 70°
2026-05-04 13:05 22.29694 113.90027 41 ft 56 kts 70°
2026-05-04 13:06 22.29918 113.90722 41 ft 138 kts 71°
2026-05-04 13:06 22.30305 113.91944 82 ft 198 kts 71°
2026-05-04 13:06 22.30760 113.93368 963 ft 199 kts 71°
2026-05-04 13:06 22.31215 113.94785 2045 ft 203 kts 70°
2026-05-04 13:07 22.31696 113.96264 2719 ft 216 kts 70°
2026-05-04 13:07 22.32221 113.97881 3092 ft 240 kts 70°
2026-05-04 13:07 22.32792 113.99645 3608 ft 257 kts 69°
2026-05-04 13:07 22.33369 114.01533 4203 ft 272 kts 72°
2026-05-04 13:08 22.33785 114.03537 4840 ft 275 kts 81°
2026-05-04 13:08 22.33805 114.05630 5504 ft 284 kts 97°
2026-05-04 13:08 22.33222 114.07674 6230 ft 288 kts 114°
2026-05-04 13:08 22.32221 114.09581 6953 ft 293 kts 126°
2026-05-04 13:09 22.30999 114.11337 7789 ft 294 kts 130°
2026-05-04 13:09 22.29712 114.13092 8579 ft 299 kts 132°
2026-05-04 13:09 22.28532 114.14647 9351 ft 295 kts 133°
2026-05-04 13:09 22.27878 114.15498 9943 ft 291 kts 133°
2026-05-04 13:10 22.26584 114.17177 10727 ft 293 kts 133°
2026-05-04 13:10 22.25231 114.18930 11187 ft 308 kts 133°
2026-05-04 13:10 22.23837 114.20738 11569 ft 325 kts 133°
2026-05-04 13:10 22.22355 114.22661 11951 ft 343 kts 133°
2026-05-04 13:11 22.20789 114.24693 12297 ft 361 kts 133°
2026-05-04 13:11 22.19139 114.26833 12661 ft 379 kts 133°
2026-05-04 13:11 22.17420 114.29062 13137 ft 393 kts 133°
2026-05-04 13:11 22.15649 114.31358 13732 ft 402 kts 133°
2026-05-04 13:12 22.13815 114.33734 14356 ft 411 kts 133°
2026-05-04 13:12 22.11997 114.36092 15030 ft 417 kts 133°
2026-05-04 13:12 22.10127 114.38513 15713 ft 423 kts 133°
2026-05-04 13:12 22.08231 114.40968 16369 ft 429 kts 133°
2026-05-04 13:13 22.06308 114.43455 17017 ft 434 kts 133°
2026-05-04 13:13 22.04361 114.45974 17628 ft 440 kts 133°
2026-05-04 13:13 22.02389 114.48522 18249 ft 444 kts 133°
2026-05-04 13:13 22.00409 114.51082 18920 ft 447 kts 133°
2026-05-04 13:14 21.98407 114.53666 19533 ft 451 kts 133°
2026-05-04 13:14 21.96381 114.56282 20108 ft 457 kts 133°
2026-05-04 13:14 21.94338 114.58926 20656 ft 461 kts 133°
2026-05-04 13:14 21.92281 114.61597 21223 ft 465 kts 133°
2026-05-04 13:15 21.90207 114.64277 21738 ft 469 kts 133°
2026-05-04 13:15 21.88104 114.66986 22280 ft 471 kts 133°
2026-05-04 13:15 21.85986 114.69709 22740 ft 476 kts 133°
2026-05-04 13:15 21.83858 114.72444 23189 ft 480 kts 133°
2026-05-04 13:16 21.81701 114.75217 23618 ft 484 kts 133°
2026-05-04 13:16 21.79534 114.78001 24095 ft 487 kts 133°
2026-05-04 13:16 21.77427 114.80870 24502 ft 493 kts 127°
2026-05-04 13:16 21.75793 114.84155 24850 ft 502 kts 115°
2026-05-04 13:17 21.74797 114.87778 25313 ft 507 kts 103°
2026-05-04 13:17 21.74327 114.91554 25717 ft 512 kts 96°
2026-05-04 13:17 21.74208 114.94102 25960 ft 515 kts 92°
2026-05-04 13:17 21.74261 114.99222 26468 ft 519 kts 89°
2026-05-04 13:18 21.74350 115.03121 26838 ft 522 kts 90°
2026-05-04 13:18 21.74375 115.07034 27200 ft 525 kts 91°
2026-05-04 13:18 21.74350 115.10970 27539 ft 529 kts 91°
2026-05-04 13:18 21.74327 115.14937 27900 ft 532 kts 91°
2026-05-04 13:19 21.74310 115.18924 28247 ft 535 kts 91°
2026-05-04 13:19 21.74299 115.21573 28481 ft 536 kts 91°
2026-05-04 13:19 21.74294 115.25028 28764 ft 539 kts 90°
2026-05-04 13:19 21.74298 115.26510 28883 ft 540 kts 90°
2026-05-04 13:20 21.74299 115.30548 29199 ft 543 kts 91°
2026-05-04 13:20 21.74291 115.34602 29485 ft 546 kts 91°
2026-05-04 13:20 21.74277 115.38729 29817 ft 548 kts 91°
2026-05-04 13:20 21.74262 115.42817 30276 ft 547 kts 91°
2026-05-04 13:21 21.74245 115.46915 30733 ft 546 kts 91°
2026-05-04 13:21 21.74229 115.50984 31168 ft 546 kts 91°
2026-05-04 13:21 21.74212 115.55082 31611 ft 546 kts 91°
2026-05-04 13:21 21.74196 115.59143 32078 ft 544 kts 91°
2026-05-04 13:22 21.74181 115.63288 32395 ft 547 kts 91°
2026-05-04 13:22 21.74143 115.71517 32552 ft 561 kts 91°
2026-05-04 13:22 21.74122 115.75736 32775 ft 563 kts 91°
2026-05-04 13:23 21.74099 115.79935 33027 ft 563 kts 91°
2026-05-04 13:23 21.74051 115.88358 33052 ft 561 kts 91°
2026-05-04 13:24 21.74003 115.96752 33062 ft 561 kts 91°
2026-05-04 13:24 21.73981 116.05138 33050 ft 561 kts 91°
2026-05-04 13:25 21.73910 116.17716 33058 ft 560 kts 91°
2026-05-04 13:25 21.73853 116.26100 33058 ft 561 kts 91°
2026-05-04 13:26 21.73792 116.34490 33046 ft 560 kts 91°
2026-05-04 13:26 21.73726 116.42855 33054 ft 559 kts 91°
2026-05-04 13:27 21.73676 116.51231 33047 ft 560 kts 91°
2026-05-04 13:27 21.73597 116.59588 33047 ft 559 kts 91°
2026-05-04 13:28 21.73510 116.67968 33054 ft 559 kts 91°
2026-05-04 13:28 21.73751 116.76240 33047 ft 559 kts 83°
2026-05-04 13:29 21.75464 116.84404 33050 ft 559 kts 72°
2026-05-04 13:29 21.77231 116.89643 33063 ft 558 kts 68°
2026-05-04 13:30 21.80086 116.97211 33051 ft 559 kts 66°
2026-05-04 13:30 21.82972 117.04970 33068 ft 558 kts 68°
2026-05-04 13:31 21.85789 117.12771 33077 ft 558 kts 68°
2026-05-04 13:31 21.88629 117.20545 33069 ft 559 kts 68°
2026-05-04 13:32 21.91450 117.28349 33052 ft 559 kts 68°
2026-05-04 13:32 21.94252 117.36170 33056 ft 559 kts 68°
2026-05-04 13:33 21.97049 117.43986 33042 ft 559 kts 68°
2026-05-04 13:33 22.00165 117.51597 33039 ft 558 kts 61°
2026-05-04 13:34 22.04081 117.58814 33041 ft 558 kts 56°
2026-05-04 13:34 22.08220 117.65969 33034 ft 558 kts 57°
2026-05-04 13:35 22.14305 117.76661 33023 ft 558 kts 57°
2026-05-04 13:36 22.18321 117.83783 33035 ft 558 kts 57°
2026-05-04 13:36 22.22351 117.90954 33031 ft 559 kts 57°
2026-05-04 13:37 22.26374 117.98114 33028 ft 558 kts 57°
2026-05-04 13:37 22.30459 118.05253 33030 ft 558 kts 55°
2026-05-04 13:38 22.34635 118.12305 33044 ft 558 kts 56°
2026-05-04 13:38 22.38769 118.19387 33035 ft 558 kts 56°
2026-05-04 13:39 22.42873 118.26510 33043 ft 558 kts 57°
2026-05-04 13:39 22.46915 118.33670 33050 ft 558 kts 57°
2026-05-04 13:40 22.49246 118.37800 33046 ft 559 kts 57°
2026-05-04 13:40 22.53291 118.44976 33069 ft 559 kts 57°
2026-05-04 13:41 22.57342 118.52160 33081 ft 560 kts 57°
2026-05-04 13:41 22.61418 118.59309 33079 ft 561 kts 56°
2026-05-04 13:42 22.67578 118.70132 33066 ft 561 kts 57°
2026-05-04 13:42 22.71642 118.77294 33071 ft 561 kts 56°
2026-05-04 13:43 22.75735 118.84507 33068 ft 562 kts 56°
2026-05-04 13:43 22.79845 118.91707 33059 ft 562 kts 56°
2026-05-04 13:44 22.83945 118.98934 33057 ft 562 kts 56°
2026-05-04 13:44 22.88037 119.06167 33056 ft 563 kts 56°
2026-05-04 13:45 22.92130 119.13414 33054 ft 563 kts 56°
2026-05-04 13:45 22.96216 119.20658 33054 ft 563 kts 56°
2026-05-04 13:46 23.00309 119.27924 33053 ft 563 kts 56°
2026-05-04 13:46 23.04413 119.35186 33054 ft 564 kts 56°
2026-05-04 13:47 23.08514 119.42496 33053 ft 564 kts 57°
2026-05-04 13:47 23.12598 119.49795 33055 ft 565 kts 57°
2026-05-04 13:48 23.16679 119.57092 33054 ft 565 kts 56°
2026-05-04 13:48 23.20735 119.64341 33052 ft 565 kts 56°
2026-05-04 13:49 23.24825 119.71649 33055 ft 566 kts 57°
2026-05-04 13:49 23.27683 119.76790 33054 ft 567 kts 57°
2026-05-04 13:50 23.31429 119.83538 33054 ft 566 kts 57°
2026-05-04 13:50 23.35751 119.90662 33057 ft 562 kts 48°
2026-05-04 13:51 23.40923 119.97059 33053 ft 562 kts 43°
2026-05-04 13:51 23.46503 120.03014 33064 ft 560 kts 39°
2026-05-04 13:52 23.54982 120.11683 33076 ft 554 kts 40°
2026-05-04 13:53 23.60584 120.17477 33102 ft 558 kts 39°
2026-05-04 13:53 23.66256 120.23321 33113 ft 561 kts 39°
2026-05-04 13:54 23.74763 120.32111 33117 ft 562 kts 39°
2026-05-04 13:55 23.83273 120.40963 33115 ft 563 kts 39°
2026-05-04 13:55 23.91864 120.49696 33109 ft 561 kts 35°
2026-05-04 13:56 23.98042 120.54863 33099 ft 558 kts 31°
2026-05-04 13:57 24.07500 120.62252 33086 ft 557 kts 31°
2026-05-04 13:58 24.19995 120.72329 33095 ft 557 kts 32°
2026-05-04 13:58 24.28363 120.79065 33083 ft 558 kts 32°
2026-05-04 13:59 24.34562 120.84093 33077 ft 558 kts 32°
2026-05-04 14:00 24.41071 120.89383 33086 ft 560 kts 32°
2026-05-04 14:00 24.50481 120.97038 33103 ft 561 kts 32°
2026-05-04 14:01 24.56752 121.02156 33113 ft 562 kts 32°
2026-05-04 14:02 24.66191 121.09878 33141 ft 566 kts 31°
2026-05-04 14:02 24.72524 121.15067 33145 ft 570 kts 31°
2026-05-04 14:03 24.78885 121.20267 33149 ft 569 kts 31°
2026-05-04 14:03 24.85250 121.25474 33147 ft 568 kts 31°
2026-05-04 14:04 24.94771 121.33281 33148 ft 569 kts 31°
2026-05-04 14:04 25.01108 121.38493 33144 ft 569 kts 32°
2026-05-04 14:05 25.10624 121.46350 33167 ft 569 kts 32°
2026-05-04 14:06 25.16856 121.51729 33164 ft 571 kts 37°
2026-05-04 14:06 25.22514 121.57934 33161 ft 575 kts 44°
2026-05-04 14:07 25.27741 121.64653 33160 ft 578 kts 46°
2026-05-04 14:07 25.32903 121.71388 33157 ft 576 kts 46°
2026-05-04 14:08 25.38161 121.78065 33153 ft 576 kts 45°
2026-05-04 14:08 25.43470 121.84746 33149 ft 577 kts 45°
2026-05-04 14:09 25.51378 121.94773 33139 ft 576 kts 45°
2026-05-04 14:10 25.56348 122.01104 33133 ft 577 kts 45°
2026-05-04 14:10 25.61905 122.07534 33131 ft 574 kts 38°
2026-05-04 14:11 25.68096 122.13097 33125 ft 571 kts 31°
2026-05-04 14:11 25.77887 122.20531 33118 ft 567 kts 29°
2026-05-04 14:12 25.84358 122.25514 33116 ft 568 kts 30°
2026-05-04 14:13 25.94077 122.33069 33114 ft 568 kts 30°
2026-05-04 14:13 26.00553 122.38123 33115 ft 568 kts 30°
2026-05-04 14:14 26.07006 122.43183 33112 ft 568 kts 30°
2026-05-04 14:14 26.16709 122.50798 33112 ft 571 kts 30°
2026-05-04 14:15 26.29654 122.61028 33113 ft 571 kts 30°
2026-05-04 14:16 26.39387 122.68721 33112 ft 571 kts 30°
2026-05-04 14:17 26.49096 122.76440 33112 ft 572 kts 30°
2026-05-04 14:18 26.58844 122.84173 33112 ft 574 kts 29°
2026-05-04 14:19 26.71899 122.94514 33112 ft 576 kts 30°
2026-05-04 14:19 26.78441 122.99711 33112 ft 575 kts 30°
2026-05-04 14:20 26.82385 123.02857 33112 ft 575 kts 30°
2026-05-04 14:20 26.88894 123.08061 33112 ft 575 kts 30°
2026-05-04 14:21 26.98668 123.15896 33112 ft 576 kts 30°
2026-05-04 14:21 27.05191 123.21133 33112 ft 576 kts 30°
2026-05-04 14:22 27.11722 123.26357 33112 ft 577 kts 30°
2026-05-04 14:22 27.18254 123.31595 33112 ft 577 kts 30°
2026-05-04 14:23 27.28049 123.39483 33112 ft 578 kts 30°
2026-05-04 14:24 27.34612 123.44778 33112 ft 580 kts 30°
2026-05-04 14:24 27.41185 123.50068 33112 ft 581 kts 30°
2026-05-04 14:25 27.47756 123.55391 33112 ft 583 kts 30°
2026-05-04 14:25 27.57575 123.63365 33111 ft 581 kts 30°
2026-05-04 14:26 27.64120 123.68719 33112 ft 583 kts 31°
2026-05-04 14:26 27.70503 123.74413 33112 ft 586 kts 33°
2026-05-04 14:27 27.76896 123.80146 33112 ft 584 kts 32°
2026-05-04 14:27 27.83287 123.85809 33112 ft 584 kts 32°
2026-05-04 14:28 27.89672 123.91494 33112 ft 584 kts 33°
2026-05-04 14:28 27.96050 123.97179 33112 ft 585 kts 33°
2026-05-04 14:29 28.08503 124.08299 33112 ft 585 kts 33°
2026-05-04 14:30 28.12455 124.11839 33112 ft 585 kts 33°
2026-05-04 14:31 28.22022 124.20424 33112 ft 586 kts 33°
2026-05-04 14:32 28.34829 124.31898 33112 ft 587 kts 33°
2026-05-04 14:32 28.41237 124.37661 33112 ft 589 kts 33°
2026-05-04 14:33 28.47662 124.43454 33112 ft 590 kts 33°
2026-05-04 14:33 28.54119 124.49273 33112 ft 593 kts 33°
2026-05-04 14:34 28.60537 124.55068 33112 ft 592 kts 33°
2026-05-04 14:34 28.67010 124.60945 33112 ft 592 kts 33°
2026-05-04 14:35 28.73494 124.66740 33113 ft 591 kts 29°
2026-05-04 14:35 28.80568 124.71378 33114 ft 584 kts 17°
2026-05-04 14:36 28.88064 124.74779 33113 ft 576 kts 11°
2026-05-04 14:36 28.95620 124.77672 33111 ft 571 kts 10°
2026-05-04 14:37 29.03116 124.80604 33112 ft 569 kts 10°
2026-05-04 14:37 29.10599 124.83583 33113 ft 569 kts 11°
2026-05-04 14:38 29.18038 124.86544 33112 ft 572 kts 11°
2026-05-04 14:38 29.24329 124.89060 33114 ft 571 kts 11°
2026-05-04 14:39 29.33025 124.92547 33111 ft 570 kts 11°
2026-05-04 14:39 29.40523 124.95561 33113 ft 573 kts 11°
2026-05-04 14:40 29.48498 124.98771 33112 ft 574 kts 11°
2026-05-04 14:40 29.56032 125.01811 33113 ft 573 kts 11°
2026-05-04 14:41 29.62256 125.04323 33112 ft 569 kts 11°
2026-05-04 14:42 29.77274 125.10391 33112 ft 570 kts 11°
2026-05-04 14:42 29.84722 125.13415 33112 ft 569 kts 11°
2026-05-04 14:43 29.92214 125.16465 33112 ft 571 kts 11°
2026-05-04 14:43 29.99714 125.19517 33112 ft 573 kts 12°
2026-05-04 14:44 30.07254 125.22603 33114 ft 575 kts 12°
2026-05-04 14:44 30.14773 125.25690 33112 ft 572 kts 12°
2026-05-04 14:45 30.22287 125.28779 33112 ft 573 kts 12°
2026-05-04 14:45 30.29817 125.31879 33112 ft 573 kts 12°
2026-05-04 14:46 30.37328 125.34962 33112 ft 573 kts 12°
2026-05-04 14:46 30.44838 125.38049 33112 ft 572 kts 12°
2026-05-04 14:47 30.52332 125.41142 33112 ft 572 kts 12°
2026-05-04 14:47 30.59844 125.44249 33112 ft 574 kts 12°
2026-05-04 14:48 30.67367 125.47366 33112 ft 572 kts 12°
2026-05-04 14:48 30.74855 125.50473 33112 ft 572 kts 12°
2026-05-04 14:49 30.82349 125.53588 33112 ft 572 kts 12°
2026-05-04 14:49 30.89727 125.56661 33112 ft 572 kts 12°
2026-05-04 14:50 30.93147 125.58087 33113 ft 573 kts 12°
2026-05-04 14:50 31.00646 125.61217 33113 ft 573 kts 12°
2026-05-04 14:51 31.08149 125.64355 33112 ft 573 kts 12°
2026-05-04 14:51 31.15652 125.67497 33112 ft 573 kts 12°
2026-05-04 14:52 31.23163 125.70648 33112 ft 573 kts 12°
2026-05-04 14:52 31.30663 125.73794 33112 ft 572 kts 12°
2026-05-04 14:53 31.38156 125.76941 33114 ft 573 kts 12°
2026-05-04 14:53 31.45656 125.80110 33117 ft 573 kts 12°
2026-05-04 14:54 31.53177 125.83292 33130 ft 576 kts 12°
2026-05-04 14:54 31.60744 125.86495 33125 ft 578 kts 12°
2026-05-04 14:55 31.68299 125.89664 33122 ft 576 kts 12°
2026-05-04 14:55 31.75858 125.92852 33120 ft 577 kts 12°
2026-05-04 14:56 31.83416 125.96031 33117 ft 577 kts 12°
2026-05-04 14:56 31.90924 125.99199 33114 ft 577 kts 12°
2026-05-04 14:57 31.98523 126.02417 33113 ft 577 kts 12°
2026-05-04 14:57 32.06087 126.05623 33116 ft 576 kts 12°
2026-05-04 14:58 32.13615 126.08813 33115 ft 575 kts 12°
2026-05-04 14:58 32.21166 126.12018 33119 ft 577 kts 12°
2026-05-04 14:59 32.28721 126.15210 33119 ft 577 kts 12°
2026-05-04 15:00 32.37045 126.18753 33126 ft 578 kts 12°
2026-05-04 15:00 32.44615 126.21986 33133 ft 579 kts 12°
2026-05-04 15:01 32.55990 126.26854 33154 ft 580 kts 11°
2026-05-04 15:01 32.63577 126.30121 33159 ft 580 kts 11°
2026-05-04 15:02 32.71173 126.33397 33169 ft 581 kts 11°
2026-05-04 15:02 32.78785 126.36665 33174 ft 583 kts 11°
2026-05-04 15:03 32.86408 126.39966 33173 ft 583 kts 11°
2026-05-04 15:03 32.94020 126.43271 33174 ft 582 kts 11°
2026-05-04 15:04 33.01636 126.46579 33177 ft 582 kts 11°
2026-05-04 15:04 33.09266 126.49839 33185 ft 582 kts 11°
2026-05-04 15:05 33.16850 126.53070 33184 ft 582 kts 11°
2026-05-04 15:05 33.24512 126.56368 33192 ft 582 kts 11°
2026-05-04 15:06 33.32134 126.59654 33191 ft 582 kts 11°
2026-05-04 15:07 33.43546 126.64600 33191 ft 582 kts 11°
2026-05-04 15:07 33.51117 126.67881 33202 ft 579 kts
2026-05-04 15:08 33.58868 126.70152 33192 ft 569 kts 359°
2026-05-04 15:08 33.66631 126.71124 33193 ft 556 kts 353°
2026-05-04 15:09 33.74375 126.71818 33187 ft 554 kts 354°
2026-05-04 15:09 33.82059 126.72650 33168 ft 554 kts 354°
2026-05-04 15:10 33.90631 126.73568 33162 ft 554 kts 353°
2026-05-04 15:11 34.02032 126.74749 33152 ft 544 kts 353°
2026-05-04 15:11 34.09541 126.75535 33142 ft 542 kts 353°
2026-05-04 15:12 34.16981 126.76314 33120 ft 536 kts 354°
2026-05-04 15:12 34.24383 126.77093 33119 ft 532 kts 354°
2026-05-04 15:13 34.31736 126.77858 33089 ft 529 kts 356°
2026-05-04 15:13 34.39077 126.78644 33091 ft 529 kts 356°
2026-05-04 15:14 34.46410 126.79421 33085 ft 529 kts 356°
2026-05-04 15:14 34.53708 126.80200 33084 ft 525 kts 356°
2026-05-04 15:15 34.60989 126.80976 33096 ft 525 kts 355°
2026-05-04 15:15 34.68266 126.81739 33078 ft 523 kts 356°
2026-05-04 15:16 34.79046 126.82893 33076 ft 515 kts 356°
2026-05-04 15:17 34.89720 126.84030 33092 ft 517 kts 355°
2026-05-04 15:17 35.00596 126.85192 33087 ft 529 kts 355°
2026-05-04 15:18 35.01928 126.85334 33084 ft 530 kts 356°
2026-05-04 15:19 35.10576 126.86273 33094 ft 532 kts 356°
2026-05-04 15:19 35.21639 126.87459 33061 ft 529 kts 358°
2026-05-04 15:20 35.27711 126.88126 33059 ft 525 kts 359°
2026-05-04 15:20 35.36216 126.89058 33065 ft 525 kts 359°
2026-05-04 15:21 35.42264 126.89720 33071 ft 525 kts 358°
2026-05-04 15:22 35.54344 126.91045 33111 ft 518 kts 357°
2026-05-04 15:22 35.63928 126.92087 33130 ft 515 kts 356°
2026-05-04 15:23 35.71013 126.92868 33150 ft 512 kts 355°
2026-05-04 15:23 35.78125 126.93646 33154 ft 512 kts 355°
2026-05-04 15:24 35.92356 126.95217 33160 ft 516 kts 356°
2026-05-04 15:25 35.99494 126.96013 33156 ft 513 kts 356°
2026-05-04 15:26 36.10140 126.97198 33120 ft 514 kts 357°
2026-05-04 15:26 36.20800 126.98394 33108 ft 509 kts 358°
2026-05-04 15:27 36.31198 126.99565 33047 ft 492 kts
2026-05-04 15:28 36.41368 127.00415 33016 ft 486 kts 355°
2026-05-04 15:29 36.49588 126.99983 33016 ft 484 kts 354°
2026-05-04 15:30 36.62910 126.99493 31671 ft 467 kts 352°
2026-05-04 15:30 36.72301 126.98582 30430 ft 423 kts 334°
2026-05-04 15:31 36.77042 126.95037 29536 ft 393 kts 313°
2026-05-04 15:31 36.79043 126.92691 29072 ft 398 kts 309°
2026-05-04 15:32 36.84950 126.84975 27697 ft 404 kts 310°
2026-05-04 15:32 36.88832 126.80092 26738 ft 388 kts 310°
2026-05-04 15:33 36.92599 126.75348 25505 ft 385 kts 311°
2026-05-04 15:34 36.98273 126.68175 24129 ft 403 kts 311°
2026-05-04 15:34 37.00190 126.65590 23630 ft 401 kts 304°
2026-05-04 15:34 37.02457 126.59491 22908 ft 378 kts 289°
2026-05-04 15:35 37.04988 126.53840 21706 ft 374 kts 311°
2026-05-04 15:35 37.06808 126.51590 21442 ft 364 kts 310°
2026-05-04 15:35 37.08361 126.49101 20817 ft 363 kts 303°
2026-05-04 15:36 37.11785 126.44252 19616 ft 380 kts 317°
2026-05-04 15:36 37.13865 126.42267 19268 ft 376 kts 322°
2026-05-04 15:36 37.16018 126.40425 18811 ft 371 kts 323°
2026-05-04 15:37 37.18131 126.38642 18500 ft 360 kts 322°
2026-05-04 15:37 37.20175 126.36880 18257 ft 350 kts 322°
2026-05-04 15:37 37.22154 126.35166 18023 ft 339 kts 322°
2026-05-04 15:37 37.24049 126.33520 17946 ft 323 kts 322°
2026-05-04 15:38 37.24942 126.32744 17904 ft 316 kts 322°
2026-05-04 15:38 37.26363 126.31508 17846 ft 304 kts 322°
2026-05-04 15:38 37.28047 126.30042 17631 ft 290 kts 321°
2026-05-04 15:38 37.29370 126.28891 17280 ft 284 kts 321°
2026-05-04 15:39 37.29890 126.28438 17119 ft 282 kts 321°
2026-05-04 15:39 37.31498 126.27052 16590 ft 279 kts 324°
2026-05-04 15:39 37.35313 126.26346 15401 ft 297 kts 11°
2026-05-04 15:40 37.37147 126.27611 14762 ft 309 kts 34°
2026-05-04 15:40 37.38562 126.29694 14217 ft 313 kts 46°
2026-05-04 15:40 37.40087 126.31526 13729 ft 297 kts 25°
2026-05-04 15:40 37.41979 126.32355 13092 ft 283 kts
2026-05-04 15:41 37.43869 126.32064 12511 ft 269 kts 336°
2026-05-04 15:41 37.45448 126.30924 12076 ft 258 kts 319°
2026-05-04 15:41 37.46677 126.29298 11539 ft 256 kts 312°
2026-05-04 15:41 37.47954 126.27754 11006 ft 254 kts 319°
2026-05-04 15:42 37.49344 126.26390 10489 ft 253 kts 322°
2026-05-04 15:42 37.50789 126.25144 9974 ft 251 kts 325°
2026-05-04 15:42 37.52277 126.23994 9448 ft 250 kts 326°
2026-05-04 15:42 37.53702 126.22763 8951 ft 246 kts 321°
2026-05-04 15:43 37.54985 126.21343 8418 ft 245 kts 319°
2026-05-04 15:43 37.56326 126.20012 7888 ft 245 kts 322°
2026-05-04 15:43 37.57693 126.18739 7386 ft 243 kts 322°
2026-05-04 15:43 37.59056 126.17478 6875 ft 242 kts 322°
2026-05-04 15:44 37.60413 126.16228 6370 ft 241 kts 322°
2026-05-04 15:44 37.61763 126.14979 5866 ft 240 kts 322°
2026-05-04 15:44 37.63100 126.13745 5299 ft 242 kts 322°
2026-05-04 15:44 37.64453 126.12489 4813 ft 241 kts 322°
2026-05-04 15:45 37.65792 126.11235 4330 ft 239 kts 322°
2026-05-04 15:45 37.67120 126.09977 3838 ft 238 kts 322°
2026-05-04 15:45 37.68437 126.08713 3337 ft 238 kts 322°
2026-05-04 15:45 37.69738 126.07416 3126 ft 233 kts 323°
2026-05-04 15:46 37.71162 126.06524 3035 ft 236 kts 347°
2026-05-04 15:46 37.72795 126.06672 2991 ft 240 kts 16°
2026-05-04 15:46 37.74172 126.07866 2908 ft 245 kts 46°
2026-05-04 15:46 37.74904 126.09796 2921 ft 247 kts 76°
2026-05-04 15:47 37.74798 126.11955 2937 ft 250 kts 105°
2026-05-04 15:47 37.73986 126.13896 2962 ft 252 kts 123°
2026-05-04 15:47 37.72839 126.15570 2947 ft 252 kts 130°
2026-05-04 15:47 37.71670 126.17212 2937 ft 252 kts 131°
2026-05-04 15:48 37.70485 126.18840 2955 ft 248 kts 132°
2026-05-04 15:48 37.69365 126.20370 2985 ft 227 kts 133°
2026-05-04 15:48 37.67349 126.23126 2707 ft 201 kts 132°
2026-05-04 15:49 37.67191 126.23342 2673 ft 200 kts 132°
2026-05-04 15:49 37.66280 126.24588 2559 ft 188 kts 132°
2026-05-04 15:49 37.65403 126.25787 2530 ft 184 kts 132°
2026-05-04 15:49 37.64542 126.26964 2536 ft 181 kts 132°
2026-05-04 15:50 37.63700 126.28126 2564 ft 178 kts 131°
2026-05-04 15:50 37.62946 126.29346 2552 ft 175 kts 125°
2026-05-04 15:50 37.62302 126.30618 2533 ft 172 kts 121°
2026-05-04 15:50 37.61669 126.31892 2530 ft 170 kts 128°
2026-05-04 15:51 37.60780 126.32948 2566 ft 177 kts 137°
2026-05-04 15:51 37.59794 126.33876 2625 ft 178 kts 142°
2026-05-04 15:51 37.58791 126.34750 2617 ft 172 kts 144°
2026-05-04 15:51 37.57798 126.35624 2270 ft 173 kts 145°
2026-05-04 15:52 37.56833 126.36481 2047 ft 168 kts 146°
2026-05-04 15:52 37.55881 126.37330 1813 ft 165 kts 147°
2026-05-04 15:52 37.54959 126.38153 1594 ft 161 kts 148°
2026-05-04 15:52 37.54063 126.38951 1397 ft 154 kts 143°
2026-05-04 15:53 37.53207 126.39716 1177 ft 150 kts 143°
2026-05-04 15:53 37.52360 126.40473 974 ft 146 kts 143°
2026-05-04 15:53 37.51536 126.41209 785 ft 145 kts 144°
2026-05-04 15:53 37.50715 126.41941 595 ft 145 kts 144°
2026-05-04 15:54 37.49890 126.42677 403 ft 145 kts 144°
2026-05-04 15:54 37.49069 126.43408 214 ft 144 kts 144°
2026-05-04 15:54 37.48247 126.44130 58 ft 144 kts 144°
2026-05-04 15:54 37.47523 126.44762 37 ft 98 kts 144°
2026-05-04 15:55 37.47162 126.45096 37 ft 30 kts 144°
2026-05-04 15:55 37.47078 126.45171 37 ft 12 kts 144°
2026-05-04 15:55 37.47011 126.45232 36 ft 12 kts 144°
2026-05-04 15:55 37.46946 126.45290 36 ft 11 kts 144°
2026-05-04 15:56 37.46884 126.45346 36 ft 11 kts 144°
2026-05-04 15:56 37.46824 126.45400 36 ft 10 kts 144°
2026-05-04 15:56 37.46767 126.45452 37 ft 12 kts 144°
2026-05-04 15:56 37.46656 126.45555 37 ft 26 kts 137°
2026-05-04 15:57 37.46520 126.45720 36 ft 29 kts 137°
2026-05-04 15:57 37.46380 126.45907 36 ft 29 kts 123°
2026-05-04 15:57 37.46314 126.46048 36 ft 1 kts 113°
2026-05-04 15:57 37.46311 126.46057 36 ft 1 kts 113°
2026-05-04 15:58 37.46309 126.46065 36 ft 1 kts 112°
2026-05-04 15:58 37.46307 126.46071 36 ft 1 kts 112°
2026-05-04 15:58 37.46302 126.46098 36 ft 5 kts 89°
2026-05-04 15:58 37.46311 126.46161 36 ft 10 kts 76°
2026-05-04 15:59 37.46317 126.46182 36 ft 10 kts 64°
2026-05-04 15:59 37.46358 126.46248 36 ft 9 kts 41°
2026-05-04 15:59 37.46407 126.46297 36 ft 9 kts 43°
2026-05-04 15:59 37.46446 126.46358 36 ft 9 kts 53°
2026-05-04 16:00 37.46469 126.46397 36 ft 8 kts 53°
2026-05-04 16:00 37.46502 126.46455 36 ft 8 kts 54°
2026-05-04 16:00 37.46525 126.46495 37 ft 0 kts 54°
2026-05-04 16:01 37.46525 126.46496 36 ft 1 kts 54°
2026-05-04 16:01 37.46539 126.46520 36 ft 6 kts 54°
2026-05-04 16:01 37.46560 126.46560 36 ft 5 kts 59°
2026-05-04 16:01 37.46574 126.46588 36 ft 7 kts 55°
2026-05-04 16:02 37.46590 126.46617 36 ft 4 kts 55°
2026-05-04 16:02 37.46609 126.46651 36 ft 5 kts 55°
2026-05-04 16:02 37.46625 126.46680 36 ft 0 kts 56°
2026-05-04 16:03 37.46628 126.46688 36 ft 2 kts 67°
2026-05-04 16:04 37.46629 126.46701 36 ft 1 kts 90°
2026-05-04 16:04 37.46622 126.46720 36 ft 1 kts 127°
2026-05-04 16:04 37.46614 126.46732 36 ft 3 kts 134°
2026-05-04 16:05 37.46595 126.46752 36 ft 4 kts 142°
2026-05-04 16:05 37.46574 126.46772 36 ft 4 kts 145°
2026-05-04 16:05 37.46562 126.46783 37 ft 0 kts 144°